Location: Platte
(43.3870°N, 98.8440°W)
Time: 12:18:36
(UTC-05:00)

Landsat 7 - Visible Passes

Search period start: 28 August 2015 00:00
Search period end: 07 September 2015 00:00
Orbit: 702 x 703 km, 98.2° (Epoch: 28 August)

Date Brightness Start Highest point End Pass type
(mag) Time Alt. Az. Time Alt. Az. Time Alt. Az.
28 Aug 4.9 22:23:38 28° ENE 22:23:38 28° ENE 22:27:41 10° N visible
29 Aug 5.5 00:02:31 28° WNW 00:02:31 28° WNW 00:05:33 10° NNW visible
29 Aug 4.2 23:07:00 57° NNE 23:07:00 57° NNE 23:10:56 10° N visible
30 Aug 6.6 00:45:54 11° WNW 00:45:54 11° WNW 00:46:29 10° WNW visible
30 Aug 5.2 22:11:29 22° ENE 22:11:29 22° ENE 22:15:10 10° NNE visible
30 Aug 5.3 23:50:23 34° WNW 23:50:23 34° WNW 23:53:31 10° NNW visible
31 Aug 4.4 22:54:52 47° NNE 22:54:52 47° NNE 22:58:38 10° N visible
01 Sep 6.4 00:33:45 14° WNW 00:33:45 14° WNW 00:35:07 10° NW visible
01 Sep 5.5 21:59:21 18° ENE 21:59:21 18° ENE 22:02:33 10° NNE visible
01 Sep 5.1 23:38:14 39° NW 23:38:14 39° NW 23:41:25 10° NNW visible
02 Sep 4.7 22:42:43 37° NE 22:42:43 37° NE 22:46:17 10° N visible
03 Sep 6.2 00:21:37 18° WNW 00:21:37 18° WNW 00:23:24 10° NW visible
03 Sep 5.8 21:47:12 14° ENE 21:47:16 14° ENE 21:49:44 10° NNE visible
03 Sep 4.9 23:26:05 41° NNW 23:26:05 41° NNW 23:29:15 10° NNW visible
04 Sep 5.0 22:30:35 30° NE 22:30:35 30° NE 22:33:53 10° N visible
05 Sep 6.1 00:09:28 21° NW 00:09:28 21° NW 00:11:31 10° NW visible
05 Sep 6.0 21:35:03 11° ENE 21:35:11 11° ENE 21:36:20 10° NE visible
05 Sep 4.9 23:13:57 40° N 23:13:57 40° N 23:17:02 10° NNW visible
06 Sep 5.3 22:18:27 24° NE 22:18:27 24° NE 22:21:24 10° N visible
06 Sep 5.9 23:57:20 24° NW 23:57:20 24° NW 23:59:31 10° NNW visible
